Wind_Speed
14 14 13 13 13 13 13 13 13 13 12 13 13 12 12 12 12 12 12 13 13 13 13 13 14 15 15 15 15 16 17 18 19 20 21 21 21 21 22 23 24 25 25
14 14 14 14 14 14 14 14 14 14 14 14 14 14 13 14 14 14 14 14 14 14 15 15 15 16 17 18 17 17 19 20 21 21 22 22 23 24 25 25 25 26 27
15 15 15 15 15 15 15 15 16 16 16 16 16 15 15 15 15 15 15 15 16 16 17 17 18 19 19 19 19 19 21 22 22 23 24 24 25 25 26 27 27 28 28
15 15 15 15 15 16 16 16 17 17 17 17 17 17 17 17 17 17 17 17 18 18 19 19 19 19 19 20 20 21 22 22 23 24 25 25 26 26 27 27 28 28 29
15 15 16 15 16 17 17 17 16 17 17 17 17 17 17 17 17 18 18 18 18 18 19 19 19 20 20 21 21 21 22 23 24 25 26 26 26 27 27 28 28 28 29
16 15 16 16 16 16 16 16 16 17 17 17 18 18 18 18 18 18 18 17 17 18 19 20 20 21 21 21 22 22 23 24 25 25 25 26 26 27 28 28 28 29 30
16 16 16 17 17 16 16 17 18 18 18 18 18 18 18 18 18 18 18 17 18 19 20 22 22 22 23 23 23 23 24 24 25 25 25 26 27 27 28 29 29 30 30
16 16 16 17 17 17 17 18 18 17 18 17 17 17 17 17 17 17 17 18 18 19 20 21 22 22 22 23 24 24 24 24 24 25 25 26 27 28 29 29 30 30 30
16 16 16 17 17 17 17 18 17 16 16 17 16 16 17 17 16 17 17 18 19 19 20 21 21 21 21 22 23 23 23 24 25 26 27 27 27 28 29 30 30 30 30
16 16 16 17 17 17 17 17 16 16 16 16 16 17 17 17 16 17 18 18 19 19 20 20 20 20 21 22 22 23 24 25 26 27 27 27 27 28 29 29 29 30 30
16 17 17 17 17 17 17 17 17 16 15 16 16 16 17 17 17 17 18 18 19 19 20 19 19 21 22 22 23 24 25 26 26 26 26 26 27 28 29 29 30 30 31
17 17 17 17 17 18 18 17 17 16 16 16 17 17 17 17 17 18 18 19 19 20 20 20 20 21 22 23 23 25 25 25 26 26 26 27 28 29 29 30 30 31 32
18 17 17 17 18 18 18 17 16 16 16 16 17 17 17 18 18 18 19 19 19 20 21 21 22 22 23 24 24 25 25 26 26 27 28 29 29 30 30 30 30 31 31
17 17 17 18 18 17 17 16 16 16 17 17 17 18 18 19 19 19 20 21 20 21 21 22 23 24 24 24 25 25 26 27 27 28 28 29 30 30 30 31 31 30 31
18 18 19 19 18 17 17 17 17 17 18 18 18 19 19 19 20 21 21 21 21 22 23 23 23 23 24 25 26 26 27 27 28 29 29 30 30 30 31 31 31 32 32
19 19 19 19 19 18 17 18 18 18 18 19 19 20 20 21 21 21 22 22 23 23 24 24 24 25 25 26 26 27 28 28 29 29 30 30 30 30 31 31 31 31 31
20 20 19 19 19 18 18 19 19 19 19 20 20 21 21 21 22 23 23 23 24 24 25 25 25 26 27 27 28 28 29 29 30 30 30 30 30 30 31 32 32 31 31
21 21 20 20 19 19 19 19 20 20 21 21 22 22 23 23 23 24 24 24 25 25 25 26 26 27 28 29 29 29 29 30 30 30 30 30 30 31 32 32 31 31 31
23 22 22 21 20 20 20 21 21 22 22 23 23 24 24 24 25 25 25 25 26 26 27 27 28 29 29 29 29 30 30 31 31 31 31 31 31 31 32 32 31 31 31
24 24 23 22 22 22 22 23 23 24 24 25 25 25 26 26 26 26 26 26 27 28 28 29 29 30 30 30 30 30 31 31 31 31 31 31 31 32 32 32 32 31 31
25 25 25 24 24 24 24 25 25 26 26 26 26 26 27 27 27 27 28 28 28 29 29 30 30 30 30 30 31 31 31 31 31 31 31 31 32 32 32 31 31 31 31
26 26 26 26 25 25 26 26 27 27 27 27 27 27 27 27 28 28 28 29 30 30 30 30 30 30 30 31 31 31 31 31 31 31 31 32 32 32 31 31 31 31 31
26 26 26 26 26 26 26 27 27 27 27 28 28 28 28 27 28 28 29 29 30 30 30 31 31 31 31 31 31 31 31 31 32 32 32 32 32 32 32 32 31 31 30
26 26 26 26 26 27 27 27 28 28 28 28 28 28 28 28 29 29 30 30 31 30 31 31 31 31 32 31 31 31 32 32 32 32 32 32 32 32 33 32 32 31 30
26 26 26 26 27 27 27 28 28 29 29 29 29 29 29 29 29 30 30 30 30 30 31 31 31 32 32 32 33 33 33 33 33 33 32 32 32 32 32 32 31 30 30
25 25 25 26 27 27 28 29 29 29 29 28 28 28 29 29 29 29 29 30 30 31 32 32 32 33 33 33 33 33 33 33 33 33 32 32 32 32 32 32 31 30 30
Wind_Direction
310 310 309 310 310 310 307 306 306 308 308 303 299 298 297 296 296 296 297 296 292 291 294 296 297 294 293 292 293 296 295 294 296 296 297 298 298 297 299 300 299 297 296
305 305 304 303 305 307 306 303 301 303 303 302 300 297 297 297 295 295 295 293 294 294 294 294 296 295 294 294 294 297 297 296 296 296 297 298 298 298 298 299 298 297 296
300 302 302 301 301 302 302 299 297 298 299 299 298 295 296 297 295 295 295 293 291 292 295 297 297 297 297 295 296 297 299 300 300 299 298 299 299 299 298 299 297 297 296
296 298 301 301 300 300 299 299 298 295 294 295 296 297 297 296 296 295 294 293 291 290 292 295 298 298 298 298 297 297 300 302 303 302 302 302 301 300 301 300 299 299 298
296 297 298 297 300 300 300 301 299 299 296 294 295 295 295 294 294 296 292 292 291 290 290 292 295 298 299 299 300 300 302 303 303 303 302 303 302 302 301 300 300 300 300
295 296 297 300 302 300 299 300 299 300 299 297 295 293 291 293 292 294 291 288 288 289 291 293 295 295 297 299 301 301 302 302 302 301 302 303 304 304 303 302 302 302 301
293 295 296 298 299 298 296 300 301 301 301 298 297 295 293 295 293 290 289 289 289 291 293 294 295 294 294 297 299 301 301 301 302 302 304 305 304 305 304 304 303 303 303
290 294 296 296 299 299 298 301 302 301 302 301 298 297 296 296 294 292 290 291 292 295 295 295 296 295 296 298 300 302 304 303 304 304 305 305 305 304 305 306 306 305 305
290 293 295 295 298 301 301 302 303 300 301 301 299 296 299 298 295 295 295 293 294 295 297 298 297 296 298 301 302 305 307 306 307 307 307 306 305 304 306 307 307 306 306
289 292 295 296 296 297 299 301 302 301 300 301 301 299 300 301 298 295 298 297 297 297 298 300 299 300 303 303 304 307 308 308 308 308 307 306 305 306 308 308 309 308 308
289 291 293 296 297 297 298 300 300 299 298 298 300 301 301 302 301 300 299 299 300 302 303 303 305 305 306 305 306 308 308 308 307 307 307 308 308 308 309 310 310 310 309
288 289 290 293 296 297 297 296 296 295 296 296 298 300 302 301 301 301 301 301 302 304 306 307 308 309 310 309 309 310 312 312 310 310 310 311 311 311 310 310 310 310 311
287 288 290 292 295 295 295 293 291 293 294 297 299 300 301 302 304 305 305 305 304 306 307 307 309 309 310 312 312 313 315 314 312 312 312 311 312 312 311 310 310 310 311
286 289 291 293 294 294 293 291 290 292 294 297 300 300 301 301 301 303 304 305 306 307 308 308 309 309 309 311 313 313 313 313 313 312 312 312 312 312 312 312 312 312 311
284 287 290 293 294 293 293 293 292 291 293 295 297 298 300 301 302 304 305 305 306 306 307 307 308 310 311 312 313 313 313 313 313 313 313 313 313 313 313 313 312 313 313
281 284 287 290 292 291 291 293 295 295 294 295 296 298 300 302 304 304 304 305 305 305 306 308 309 310 310 311 312 312 312 313 313 313 313 313 313 313 313 313 314 314 314
279 281 282 286 287 288 290 292 293 295 296 297 299 300 301 302 303 304 304 303 304 305 306 307 308 309 310 310 311 312 313 313 313 312 312 313 313 313 313 314 314 314 314
276 278 280 283 283 284 288 291 292 293 296 297 299 301 302 302 303 303 304 304 305 306 306 306 307 308 309 310 311 312 312 312 312 312 312 313 313 313 313 314 314 314 313
274 276 278 278 279 282 285 288 291 293 294 295 297 299 301 302 302 302 302 303 305 306 306 306 307 308 309 310 310 311 312 311 311 311 311 311 312 313 314 314 314 314 314
272 273 275 276 278 280 283 286 289 290 292 294 295 297 298 300 301 301 301 302 303 304 305 306 307 307 308 310 310 311 311 311 312 311 312 312 312 313 314 314 314 315 314
270 271 273 274 276 278 281 284 287 289 290 292 293 294 296 297 299 300 300 301 302 303 304 305 306 307 307 309 310 311 311 311 312 312 313 314 314 314 314 315 315 315 315
270 271 272 273 275 278 281 284 287 289 290 291 292 293 294 296 297 299 300 301 301 302 303 304 305 306 306 308 309 310 310 311 312 313 314 314 315 315 315 315 315 315 314
270 270 272 273 275 277 280 283 285 287 289 291 292 293 294 295 297 298 300 302 302 303 303 304 305 305 307 308 309 309 310 310 311 312 313 313 313 313 315 315 315 315 314
269 270 271 273 275 278 280 283 285 286 288 290 291 292 293 296 298 299 301 302 302 302 303 304 305 306 307 308 308 308 309 309 310 311 312 312 312 312 313 314 314 314 314
268 270 271 273 275 277 280 283 285 288 289 290 290 291 293 296 297 299 300 301 301 302 303 304 305 306 306 307 307 308 308 309 309 309 310 310 311 311 311 312 312 313 313
269 271 272 274 276 279 282 284 287 288 289 289 291 292 294 296 297 299 300 301 301 302 303 304 305 306 307 307 307 307 308 308 308 308 309 310 311 311 311 311 311 311 311
Height
5915 5914 5912 5911 5909 5908 5906 5905 5904 5902 5901 5900 5898 5897 5897 5896 5895 5893 5892 5891 5890 5889 5887 5886 5885 5884 5883 5882 5880 5879 5877 5876 5874 5872 5869 5867 5865 5863 5861 5859 5857 5854 5852
5913 5911 5910 5909 5907 5905 5904 5902 5901 5900 5898 5897 5896 5895 5894 5892 5891 5890 5889 5888 5887 5886 5884 5883 5882 5881 5879 5878 5876 5875 5873 5871 5870 5867 5865 5862 5860 5858 5855 5853 5850 5848 5845
5910 5909 5907 5906 5905 5903 5901 5899 5898 5897 5895 5894 5893 5891 5890 5889 5888 5887 5886 5885 5883 5882 5881 5879 5878 5876 5875 5873 5872 5870 5868 5866 5864 5862 5859 5857 5854 5852 5849 5847 5844 5841 5838
5907 5906 5905 5903 5902 5900 5898 5896 5895 5893 5892 5890 5889 5888 5887 5885 5884 5883 5882 5880 5879 5878 5877 5875 5874 5872 5870 5869 5867 5865 5863 5860 5858 5856 5853 5851 5848 5845 5843 5840 5837 5834 5831
5904 5903 5901 5899 5898 5896 5894 5893 5891 5889 5888 5886 5885 5884 5882 5881 5880 5879 5877 5876 5875 5874 5872 5871 5869 5867 5866 5864 5862 5860 5858 5855 5853 5850 5847 5844 5842 5839 5836 5833 5830 5827 5824
5901 5900 5898 5896 5895 5893 5891 5890 5888 5886 5884 5882 5881 5879 5878 5877 5876 5874 5873 5871 5870 5869 5868 5866 5865 5863 5861 5859 5856 5854 5852 5849 5847 5844 5841 5838 5835 5832 5830 5826 5823 5821 5817
5897 5896 5895 5893 5891 5889 5887 5886 5884 5882 5880 5878 5877 5875 5874 5872 5871 5870 5868 5867 5866 5864 5863 5861 5859 5857 5855 5853 5851 5848 5846 5843 5841 5838 5835 5832 5829 5826 5823 5820 5816 5813 5810
5893 5892 5891 5889 5887 5885 5884 5882 5880 5878 5876 5874 5873 5871 5869 5868 5866 5865 5864 5862 5861 5859 5858 5856 5853 5851 5849 5847 5845 5842 5839 5837 5834 5832 5829 5825 5822 5819 5816 5813 5809 5806 5802
5889 5888 5887 5885 5883 5882 5880 5878 5876 5874 5872 5871 5869 5867 5866 5864 5862 5861 5859 5858 5856 5854 5853 5850 5848 5846 5843 5841 5839 5837 5834 5831 5828 5825 5822 5818 5815 5812 5809 5805 5802 5798 5795
5885 5884 5882 5881 5879 5877 5876 5874 5872 5870 5868 5867 5866 5864 5862 5860 5858 5857 5856 5854 5852 5850 5848 5845 5843 5840 5838 5836 5834 5831 5828 5825 5822 5819 5815 5812 5808 5805 5802 5798 5794 5791 5787
5881 5880 5878 5877 5875 5873 5872 5870 5868 5867 5865 5864 5862 5860 5859 5857 5855 5853 5852 5850 5848 5846 5843 5840 5838 5836 5833 5831 5828 5825 5822 5819 5816 5812 5809 5805 5802 5798 5795 5791 5787 5783 5779
5877 5876 5874 5873 5871 5869 5867 5866 5865 5863 5861 5860 5858 5856 5855 5853 5851 5849 5848 5846 5844 5841 5839 5836 5834 5831 5828 5825 5822 5819 5816 5813 5810 5806 5803 5799 5795 5791 5788 5783 5779 5775 5771
5873 5871 5870 5869 5867 5865 5863 5862 5860 5859 5858 5856 5854 5853 5851 5849 5847 5845 5843 5841 5839 5837 5834 5832 5829 5827 5824 5820 5817 5814 5811 5807 5804 5800 5796 5792 5789 5784 5780 5776 5772 5768 5763
5868 5867 5866 5864 5862 5861 5859 5857 5856 5855 5854 5852 5850 5849 5847 5845 5843 5841 5839 5837 5834 5832 5830 5827 5824 5821 5818 5815 5811 5808 5804 5801 5797 5793 5790 5786 5781 5777 5773 5768 5764 5760 5755
5863 5862 5861 5860 5858 5857 5855 5853 5852 5851 5850 5848 5846 5845 5843 5841 5839 5837 5834 5832 5829 5827 5824 5822 5819 5816 5813 5809 5805 5802 5798 5795 5791 5787 5783 5779 5774 5770 5766 5761 5756 5752 5747
5858 5857 5856 5855 5853 5852 5851 5849 5848 5847 5845 5844 5842 5840 5838 5836 5834 5832 5829 5827 5824 5822 5819 5816 5813 5809 5806 5803 5799 5795 5792 5788 5784 5780 5775 5771 5767 5763 5758 5753 5749 5744 5740
5853 5852 5851 5850 5849 5847 5846 5845 5843 5842 5840 5839 5837 5835 5833 5831 5829 5826 5824 5822 5819 5816 5813 5810 5807 5803 5800 5796 5793 5789 5785 5781 5777 5772 5768 5764 5759 5755 5751 5746 5741 5737 5732
5847 5846 5846 5844 5843 5842 5841 5840 5839 5837 5835 5834 5832 5830 5828 5826 5823 5821 5818 5816 5813 5810 5807 5803 5800 5797 5793 5790 5786 5782 5778 5774 5770 5765 5761 5756 5752 5748 5743 5738 5734 5729 5724
5841 5841 5840 5839 5838 5837 5836 5835 5833 5832 5830 5828 5826 5824 5822 5820 5817 5815 5812 5809 5806 5803 5800 5797 5793 5790 5786 5782 5778 5775 5770 5766 5762 5758 5753 5749 5744 5740 5735 5731 5726 5721 5717
5834 5834 5833 5833 5832 5831 5830 5829 5828 5826 5824 5822 5820 5818 5816 5813 5811 5808 5805 5802 5799 5796 5793 5790 5786 5783 5779 5775 5771 5767 5763 5759 5754 5750 5746 5741 5737 5732 5728 5723 5718 5714 5709
5827 5827 5827 5826 5825 5824 5823 5822 5821 5819 5817 5815 5813 5811 5808 5806 5803 5801 5798 5795 5792 5789 5785 5782 5778 5775 5771 5767 5763 5759 5755 5751 5746 5742 5738 5733 5729 5724 5720 5715 5711 5706 5701
5821 5820 5820 5819 5818 5818 5816 5815 5814 5812 5810 5808 5806 5803 5801 5799 5796 5794 5791 5788 5785 5781 5777 5774 5770 5767 5763 5759 5755 5751 5747 5743 5738 5734 5730 5725 5721 5716 5712 5707 5703 5698 5694
5813 5813 5813 5812 5811 5810 5809 5808 5806 5804 5802 5800 5798 5796 5793 5791 5789 5786 5783 5780 5776 5773 5769 5766 5763 5759 5755 5751 5747 5743 5739 5735 5731 5726 5722 5718 5713 5709 5704 5700 5695 5691 5686
5806 5806 5805 5804 5804 5803 5801 5800 5798 5797 5795 5793 5790 5788 5786 5783 5781 5778 5775 5772 5769 5765 5762 5758 5754 5751 5747 5743 5739 5735 5730 5726 5722 5718 5714 5709 5705 5701 5697 5692 5687 5683 5679
5799 5798 5798 5797 5796 5795 5794 5792 5791 5789 5787 5784 5782 5780 5777 5775 5772 5770 5767 5764 5760 5757 5754 5750 5746 5742 5738 5734 5730 5726 5722 5718 5714 5710 5705 5701 5697 5693 5688 5684 5679 5675 5671
5791 5791 5790 5790 5789 5787 5786 5784 5783 5781 5778 5776 5774 5772 5769 5767 5764 5761 5758 5755 5752 5749 5745 5742 5738 5734 5730 5725 5721 5717 5713 5709 5705 5701 5697 5693 5689 5684 5680 5676 5671 5667 5663